TimeEST,TemperatureF,Dew PointF,Humidity,Sea Level PressureIn,VisibilityMPH,Wind Direction,Wind SpeedMPH,Gust SpeedMPH,PrecipitationIn,Events,Conditions,WindDirDegrees,DateUTC
12:51 AM,39.0,32.0,76,29.96,10.0,NW,13.8,-,0.00,,Overcast,320,2013-02-16 05:51:00
1:51 AM,37.0,32.0,82,29.96,10.0,NNW,12.7,-,0.00,Rain,Light Rain,340,2013-02-16 06:51:00
2:12 AM,37.4,33.8,87,29.95,10.0,NNW,6.9,-,0.00,Rain,Light Rain,340,2013-02-16 07:12:00
2:51 AM,37.0,32.0,82,29.95,10.0,North,9.2,-,0.01,Rain,Light Rain,350,2013-02-16 07:51:00
3:51 AM,36.0,30.9,82,29.93,10.0,NNE,9.2,-,0.01,Rain,Light Rain,20,2013-02-16 08:51:00
4:51 AM,35.1,30.9,85,29.93,10.0,NNE,8.1,-,0.00,,Overcast,30,2013-02-16 09:51:00
5:48 AM,35.6,28.4,75,29.94,9.0,North,11.5,-,0.00,Snow,Light Snow,360,2013-02-16 10:48:00
5:51 AM,35.1,28.9,78,29.94,8.0,North,12.7,-,0.00,Snow,Light Snow,10,2013-02-16 10:51:00
6:51 AM,35.1,28.9,78,29.94,9.0,North,9.2,-,0.00,Snow,Light Snow,10,2013-02-16 11:51:00
7:51 AM,35.1,28.0,76,29.95,10.0,North,11.5,-,0.00,,Overcast,350,2013-02-16 12:51:00
8:51 AM,34.0,27.0,75,29.95,10.0,North,11.5,-,0.00,Snow,Light Snow,360,2013-02-16 13:51:00
9:51 AM,35.1,26.1,70,29.94,9.0,North,12.7,-,0.00,,Overcast,360,2013-02-16 14:51:00
10:51 AM,35.1,24.1,64,29.94,10.0,NNE,10.4,-,N/A,,Overcast,20,2013-02-16 15:51:00
11:51 AM,36.0,24.1,62,29.92,10.0,North,9.2,-,N/A,,Mostly Cloudy,10,2013-02-16 16:51:00
12:51 PM,37.0,23.0,57,29.90,10.0,North,10.4,-,N/A,,Mostly Cloudy,360,2013-02-16 17:51:00
1:51 PM,37.0,23.0,57,29.88,10.0,NNE,8.1,18.4,N/A,,Mostly Cloudy,30,2013-02-16 18:51:00
2:51 PM,37.9,21.9,53,29.85,10.0,North,10.4,-,N/A,,Mostly Cloudy,10,2013-02-16 19:51:00
3:51 PM,37.0,19.0,48,29.86,10.0,NNE,11.5,-,N/A,,Overcast,20,2013-02-16 20:51:00
4:51 PM,36.0,21.0,55,29.85,10.0,North,13.8,-,N/A,,Overcast,360,2013-02-16 21:51:00
5:51 PM,36.0,19.0,50,29.84,10.0,North,12.7,-,N/A,,Overcast,360,2013-02-16 22:51:00
6:51 PM,35.1,19.0,52,29.83,10.0,North,13.8,-,N/A,,Overcast,350,2013-02-16 23:51:00
7:51 PM,34.0,18.0,52,29.83,10.0,North,16.1,24.2,N/A,,Overcast,10,2013-02-17 00:51:00
8:51 PM,33.1,17.1,52,29.82,10.0,North,16.1,20.7,N/A,,Overcast,10,2013-02-17 01:51:00
9:51 PM,32.0,14.0,48,29.80,10.0,North,17.3,26.5,N/A,,Overcast,10,2013-02-17 02:51:00
10:51 PM,32.0,15.1,50,29.76,10.0,North,16.1,-,N/A,,Overcast,350,2013-02-17 03:51:00
11:51 PM,32.0,15.1,50,29.73,10.0,North,23.0,29.9,N/A,,Overcast,350,2013-02-17 04:51:00